Location: Madrid
(40.4000°N, 3.6830°W)
Time: 23:47:12
(UTC+02:00)

ISS - Pass Details

Date: 21 May 2019
Orbit: 408 x 418 km, 51.6° (Epoch: 26 May)

Event Time Altitude Azimuth Distance (km) Brightness Sun altitude
Rises 03:30:40 0° 312° (NW) 2,362 0.3 -26.7°
Reaches altitude 10° 03:32:57 10° 323° (NW) 1,498 -0.6 -26.6°
Enters shadow 03:33:46 15° 332° (NNW) 1,218 -1.0 -26.5°
